Weather in Rameshki

Russia / Nizhny Novgorod Oblast'     57°17′27″N   44°18′09″E
temp.,
°C
wind,
m/s
gust,
m/s
humid.,
%
clouds,
%
prec.,
mm/h
press.,
hPa
HPBL,
m
1 december, wed
wed100:00−1ssw71593100 1.7 9791511
03:00−2sw81680100 3.2 9821294
06:00−2sw61492100 0.2 9841435
09:00−3ssw61188100 0.6 9871193
12:00−2sw51080100 0.1 9881102
15:00−2sw4884100 0.2 988892
18:00−3sw3985100 0.1 989572
21:00−4sw499397 0.3 989736
2 december, thu
thu200:00−4sw3894100 0.4 991667
03:00−5wsw389151 0.7 992479
06:00−5wsw3894100 0.1 994669
09:00−5w598996 0.6 997751
12:00−6w4883100 0.1 1000707
15:00−6wsw4883100 0.1 1002703
18:00−6sw3881100 0.0 1003683
21:00−5ssw3879100 0.0 1002582
3 december, fri
fri300:00−5s399388 0.2 1002514
03:00−4s399389 0.4 1002460
06:00−4ssw31095100 0.1 1002400
09:00−1sw41197100 0.3 1004635
12:00+1sw4119487 0.3 1005639
15:00+1sw4883100 0.3 1006758
18:000s3795100 0.0 1008262
21:000sse41298100 0.1 1006508
4 december, sat
sat400:00+1s51495100 0.4 1003783
03:00+3s61597100 0.9 1001984
06:00+3ssw51397100 0.9 10001001
09:00+2wsw61197100 3.6 1001879
12:000wsw51085100 0.5 10051084
15:00−2wsw5118112 0.5 1007767
18:00−3sw4118491 0.0 1010683
21:00−3wsw4108591 0.0 1011807
5 december, sun
sun500:00−2wsw4880100 0.1 1012910
03:00−3wsw399094 0.1 1013622
06:00−3w477899 0.0 1014726
09:00−4wsw389190 0.0 1016588
12:00−3w367888 0.0 1017646
15:00−4w258553 0.0 1019255
18:00−5w119599 0.0 102034
21:00−6n1195100 0.0 102156